Newark, NJ

3:01 PM EDT on August 27, 2016 (GMT -0400)
Newark International

Weather History for KEWR - July, 2013

Change the Weather History Date:

Tuesday, July 16, 2013

  Actual Average Record
Temperature  
Mean Temperature 87 °F 78 °F  
Max Temperature 95 °F 86 °F 101 °F (1988)
Min Temperature 79 °F 69 °F 57 °F (1946)
Degree Days  
Heating Degree Days 0 0  
Month to date heating degree days 0 0  
Since 1 June heating degree days 8 17  
Since 1 July heating degree days 0 0  
Cooling Degree Days 22 13  
Month to date cooling degree days 276 196  
Year to date cooling degree days 641 511  
Since 1 June cooling degree days 541 435  
Growing Degree Days 37 (Base 50)    
Moisture  
Dew Point 65 °F    
Average Humidity 52    
Maximum Humidity 67    
Minimum Humidity 36    
Precipitation  
Precipitation 0.00 in 0.16 in 1.22 in (1933)
Month to date precipitation 2.87 2.30  
Year to date precipitation 27.86 25.21  
Snow  
Snow 0.00 in 0.00 in 0.00 in (2002)
Month to date snowfall 0.0 0.0  
Since 1 July snowfall 0.0 0.0  
Snow Depth 0.00 in    
Sea Level Pressure  
Sea Level Pressure 30.16 in    
Wind  
Wind Speed 10 mph (North)    
Max Wind Speed 18 mph    
Max Gust Speed 23 mph    
Visibility 10 miles    
Events      
T = Trace of Precipitation, MM = Missing Value Source: NWS Daily Summary

Daily Weather History Graph

Daily Weather History Graph

Search for Another Location

Airport or City:

Trip Planner

Search our weather history database for the weather conditions in past years. The results will help you decide how hot, cold, wet, or windy it might be!

Date:

Astronomy

Jul. 16, 2013 Rise Set
Actual Time 5:39 AM EDT 8:25 PM EDT
Civil Twilight 5:07 AM EDT 8:57 PM EDT
Nautical Twilight 4:26 AM EDT 9:38 PM EDT
Astronomical Twilight 3:40 AM EDT 10:24 PM EDT
Moon 2:03 PM EDT (7/16) 12:08 AM EDT (7/16)
Length of Visible Light 15h 50m
Length of Day
14h 46m
First Quarter, 56% of the Moon is Illuminated
Jul 16
First Quarter
Jul 22
Full
Jul 29
Last Quarter
Aug 6
New
Aug 14
First Quarter

Hourly Weather History & Observations

Time (EDT) Temp. Heat Index Dew Point Humidity Pressure Visibility Wind Dir Wind Speed Gust Speed Precip Events Conditions
12:51 AM 82.0 °F 85.5 °F 69.1 °F 65% 30.16 in 10.0 mi North 6.9 mph - N/A   Mostly Cloudy
1:51 AM 84.0 °F 87.8 °F 69.1 °F 61% 30.16 in 10.0 mi NW 6.9 mph - N/A   Mostly Cloudy
2:51 AM 82.9 °F 85.8 °F 68.0 °F 60% 30.15 in 10.0 mi NNW 9.2 mph - N/A   Mostly Cloudy
3:51 AM 81.0 °F 83.8 °F 68.0 °F 65% 30.15 in 10.0 mi NNW 10.4 mph - N/A   Mostly Cloudy
4:51 AM 80.1 °F 82.7 °F 68.0 °F 67% 30.16 in 10.0 mi NNW 5.8 mph - N/A   Mostly Cloudy
5:51 AM 80.1 °F 82.1 °F 66.0 °F 62% 30.18 in 10.0 mi NNW 11.5 mph - N/A   Scattered Clouds
6:51 AM 80.1 °F 82.1 °F 66.0 °F 62% 30.19 in 10.0 mi North 10.4 mph - N/A   Scattered Clouds
7:51 AM 82.0 °F 84.1 °F 66.0 °F 58% 30.19 in 10.0 mi North 13.8 mph - N/A   Scattered Clouds
8:51 AM 84.9 °F 87.1 °F 66.0 °F 53% 30.20 in 10.0 mi North 15.0 mph - N/A   Scattered Clouds
9:51 AM 88.0 °F 90.3 °F 66.0 °F 48% 30.19 in 10.0 mi North 12.7 mph - N/A   Scattered Clouds
10:51 AM 90.0 °F 91.7 °F 64.9 °F 43% 30.19 in 10.0 mi North 9.2 mph - N/A   Scattered Clouds
11:51 AM 91.9 °F 94.1 °F 64.9 °F 41% 30.18 in 10.0 mi NNW 13.8 mph 23.0 mph N/A   Partly Cloudy
12:51 PM 93.0 °F 94.2 °F 63.0 °F 37% 30.17 in 10.0 mi North 12.7 mph - N/A   Partly Cloudy
1:51 PM 93.0 °F 94.6 °F 64.0 °F 38% 30.16 in 10.0 mi NNW 10.4 mph 17.3 mph N/A   Scattered Clouds
2:51 PM 93.9 °F 95.2 °F 63.0 °F 36% 30.15 in 10.0 mi North 10.4 mph 21.9 mph N/A   Scattered Clouds
3:51 PM 93.9 °F 94.8 °F 62.1 °F 35% 30.14 in 10.0 mi NNE 15.0 mph 20.7 mph N/A   Scattered Clouds
4:51 PM 93.9 °F 95.2 °F 63.0 °F 36% 30.13 in 10.0 mi NNE 11.5 mph - N/A   Scattered Clouds
5:51 PM 90.0 °F 91.3 °F 64.0 °F 42% 30.13 in 10.0 mi NNE 11.5 mph - N/A   Scattered Clouds
6:51 PM 91.0 °F 92.6 °F 64.0 °F 41% 30.13 in 10.0 mi NNE 10.4 mph - N/A   Partly Cloudy
7:51 PM 89.1 °F 90.0 °F 63.0 °F 42% 30.14 in 10.0 mi NNE 11.5 mph - N/A   Partly Cloudy
8:51 PM 87.1 °F 88.3 °F 64.0 °F 46% 30.14 in 10.0 mi NNE 9.2 mph - N/A   Scattered Clouds
9:51 PM 84.9 °F 86.1 °F 64.0 °F 49% 30.16 in 10.0 mi NNE 5.8 mph - N/A   Partly Cloudy
10:51 PM 87.1 °F 87.8 °F 63.0 °F 44% 30.17 in 10.0 mi NNE 3.5 mph - N/A   Mostly Cloudy
11:51 PM 88.0 °F 89.6 °F 64.9 °F 46% 30.16 in 10.0 mi Variable 3.5 mph - N/A   Mostly Cloudy